Regional Weather Roundup
Issued by NWS Grand Forks, ND

Home | Current Version | Previous Version | Graphics & Text | Print | Product List | Glossary On
Versions: 1 2 3 4 5 6 7 8 9 10 11 12 13 14 15 16 17 18 19 20 21 22 23 24 25 26 27 28 29 30 31 32 33 34 35 36 37 38 39 40 41 42 43 44 45 46 47 48 49 50
000
ASUS43 KFGF 200210
RWRFGF
PRAIRIE TO PINES  WEATHER ROUNDUP
NATIONAL WEATHER SERVICE EASTERN NORTH DAKOTA/GRAND FORKS ND
900 PM CDT SAT APR 19 2014

 **SATELLITE DATA USED TO AUGMENT SKY COVER AT AUTOMATED STATIONS**
 *****  WEATHER ACROSS EASTERN NORTH DAKOTA  *****

CITY           SKY/WX    TMP DP  RH WIND       PRES   REMARKS
GRAND FORKS    CLEAR     45  36  70 W7        29.97R
GRAND FRKS AFB CLEAR     47  35  63 NW7       29.98R
GRAND FRKS NWS   N/A     46 N/A N/A W9          N/A
DEVILS LAKE    CLEAR     43  30  61 W7        29.97R
FARGO          CLEAR     54  39  57 N9        29.96R
WAHPETON ARPT  CLEAR     54  27  35 SW3       29.96R
$$

 ***** WEATHER ACROSS CENTRAL AND WESTERN NORTH DAKOTA  *****

CITY           SKY/WX    TMP DP  RH WIND       PRES   REMARKS
BISMARCK       CLEAR     54  34  46 NE5       29.97R
MINOT          CLEAR     43  33  68 CALM      29.94R
JAMESTOWN      CLEAR     49  37  63 NW12      29.96R
MINOT AFB      CLEAR     46  35  65 N3        29.94R
GARRISON         N/A     47  33  58 N6        29.94S
WILLISTON      CLEAR     42  32  67 CALM      29.90F
DICKINSON      CLEAR     53  28  38 S3        29.93S
HETTINGER      CLEAR     49  23  36 CALM      29.97S
$$

 *****  OTHER AIRPORT OBSERVATIONS IN OUR AREA  *****

CITY           SKY/WX    TMP DP  RH WIND       PRES   REMARKS
WALHALLA         N/A     45  32  61 W9        29.95R
GRAFTON AIRPOR FAIR      45  34  65 W10       29.97R
VALLEY CITY AR FAIR      48  39  71 N7        29.97R
CANDO          FAIR      41  32  70 NW9       29.96R
CAVALIER APRT  FAIR      46  34  61 W10G16    29.95R
GWINNER        CLEAR     55  32  41 W7        29.96R
SHEYENNE NWR     N/A     54  30  40 CALM      29.95S
ROLLA          FAIR      39  32  75 NW8       29.95R
 ***** THE ABOVE OBSERVATIONS ARE NON NWS ARE NOT QUALITY
       CONTROLLED AND MAY MIS-REPORT RAIN FOR SNOW...
$$

  *****  WEATHER ACROSS NORTHERN MINNESOTA  *****

CITY           SKY/WX    TMP DP  RH WIND       PRES   REMARKS
FLAG ISLAND    CLOUDY    45  36  70 NW13      29.91R
WARROAD        CLEAR     46  37  71 W9        29.92R
ROSEAU         CLEAR     46  37  71 W9G16     29.93R
HALLOCK        CLOUDY    46  36  66 NW7       29.95R
THF RVR FALLS  CLEAR     48  37  66 W10       29.96R
BAUDETTE       CLEAR     49  39  68 VRB3      29.91R
WASKISH        CLEAR     45  36  70 W7        29.94R
CROOKSTON      CLEAR     48  39  71 NW15      29.98R
$$
  *****  WEATHER ACROSS CENTRAL AND WEST MINNESOTA  *****

CITY           SKY/WX    TMP DP  RH WIND       PRES   REMARKS
FOSSTON        CLEAR     48  37  66 NW8       29.97R
BEMIDJI        CLEAR     55  34  46 SW3       29.93S
PARK RAPIDS    CLEAR     51  32  48 SW6       29.95R
ELBOW LAKE     FAIR      57  33  41 CALM      29.97S
WADENA         CLEAR     54  30  40 CALM      29.97R
DETROIT LAKES  CLEAR     55  32  41 S5        29.96S
MOORHEAD       NOT AVBL
FERGUS FALLS   CLEAR     55  30  38 S3        29.93R
MORRIS MN      CLEAR     54  34  47 W3        29.98R
STAPLES        CLEAR     54  28  37 CALM      29.98R
$$
  *****  WEATHER ELSEWHERE ACROSS MINNESOTA  *****

CITY           SKY/WX    TMP DP  RH WIND       PRES   REMARKS
DULUTH         CLEAR     34  29  82 SE8       30.00R
INTRNTL FALLS  CLEAR     51  35  54 W6        29.91R
ELY            CLEAR     43  36  75 S9        29.96R
CLOQUET        CLEAR     34  30  86 SE5       30.00R
WHEATON        CLEAR     63  34  34 S3        29.99R
BRAINERD       CLEAR     54  29  38 CALM      29.97R
HIBBING        CLEAR     49  38  65 S3        29.96R
ALEXANDRIA     CLEAR     57  30  35 W5        29.99R
SAINT CLOUD    PTCLDY    48  43  82 SE5       29.99R
MINNEAPOLIS    CLOUDY    59  53  80 SW3       30.00R
$$

  *****  WEATHER ACROSS SOUTH DAKOTA  *****

CITY           SKY/WX    TMP DP  RH WIND       PRES   REMARKS
SIOUX FALLS    CLOUDY    60  36  40 NE5       30.00R
BROOKINGS      NOT AVBL
WATERTOWN      MOCLDY    56  25  30 SW5       29.99S
HURON          CLOUDY    60  26  27 SW6       29.99R
SISSETON         N/A     50  35  56 SW8       29.96R
ABERDEEN       PTCLDY    52  27  38 W7        29.97R
MITCHELL       MOCLDY    60  25  26 MISG      30.01R
PIERRE         MOCLDY    52  26  36 S3        29.98R
MOBRIDGE       CLEAR     49  27  42 N3        29.95R
RAPID CITY     MOCLDY    51  31  46 SE9       29.98S
$$

  *****  SOME WEATHER IN NEARBY STATES *****

CITY           SKY/WX    TMP DP  RH WIND       PRES   REMARKS
GLASGOW MT     CLEAR     51  27  39 SE10      29.85F
GREAT FALLS MT CLEAR     58  17  20 CALM      29.79F
CHEYENNE WY    PTCLDY    52  41  66 S15G29    30.06R
SCOTTSBLUFF NE PTCLDY    59  33  37 SE10      30.01R
OMAHA NE       CLOUDY    74  43  32 S21       29.97R
DES MOINES IA  PTCLDY    67  43  41 S9        30.06R
DAVENPORT IA   PTCLDY    61  34  36 S9        30.15R
CHICAGO IL     CLOUDY    54  35  48 E6        30.23R
EAU CLAIRE WI  CLOUDY    58  44  60 SE5       30.04R
LA CROSSE WI   MOCLDY    64  40  41 S9        30.06R
$$

  *****  SOME NATIONAL WEATHER *****

CITY           SKY/WX    TMP DP  RH WIND       PRES   REMARKS
LA GUARDIA NY  MOCLDY    57  22  25 NE10      30.32R
RALEIGH NC     LGT RAIN  52  44  74 NE10      30.22R
ATLANTA GA     CLOUDY    58  42  55 NE15      30.18R
NEW ORLEANS LA PTCLDY    68  55  63 NW3       30.11R
OKLAHOMA CITY  MOCLDY    66  49  54 S9        30.07R
ALBUQUERQUE NM LGT RAIN  56  44  64 NE13      30.12R
SALT LAKE CITY MOCLDY    67  36  31 NW3       29.96S
LOS ANGELES CA PTCLDY    62  55  77 W13       29.99S
BOISE ID       PTCLDY    72  25  17 SE7       29.80S
SEATTLE WA     MOCLDY    50  44  80 SW18G30   30.04R
$$

*** WEATHER ACROSS MANITOBA...SASKATCHEWAN AND ONTARIO ***
                ***ONTARIO***

CITY           SKY/WX    TMP DP  RH WIND       PRES   REMARKS
GERALDTON      DRIZZLE   34  32  93 S13G22    30.09F WCI  25
THUNDER BAY    PTCLDY    32  32 100 NE3       30.06F
SIOUX LOOKOUT  MOCLDY    37  34  87 S9G18     29.86S
TORONTO        CLEAR     43  28  56 S2        30.40R
BIG TROUT LK   FLURRIES  32  30  93 SE17G24   29.86F WCI  21
PICKLE LAKE    MOCLDY    34  32  93 S17G26    29.86F WCI  23
DRYDEN         CLOUDY    41  36  81 SW10      29.85R
KENORA         CLOUDY    43  34  70 W17G26    29.90R
$$
                *** MANITOBA***

CITY           SKY/WX    TMP DP  RH WIND       PRES   REMARKS
BRANDON        MOCLDY    34  32  93 W6        29.94R
DAUPHIN        CLOUDY    36  30  80 W12G17    29.90R
ISLAND LAKE    LGTSLEET  32  32 100 SE6       29.67S FOG
PILOT MOUND      N/A     41  32  70 W8          N/A
THE PAS        CLOUDY    32  32 100 NW9       29.80R WCI  24
THOMPSON       LGT SNOW  32  32 100 NE12      29.76S WCI  23
WINNIPEG       MOCLDY    39  32  75 W15       29.94R
LYNN LAKE      MOCLDY    32  25  74 E8        29.84R WCI  25
CHURCHILL      MOCLDY    23  18  80 E12       30.02F WCI  12
GILLAM         LGT SNOW  32  32 100 E9        29.84F WCI  24
$$
                ***SASKATCHEWAN***

CITY           SKY/WX    TMP DP  RH WIND       PRES   REMARKS
ESTEVAN        PTCLDY    41  36  81 E6        29.93S
KINDERSLEY     PTCLDY    45  36  70 SE7       29.81F
LLOYDMINSTER   PTCLDY    41  32  70 E13       29.77S
PRINCE ALBERT  MOCLDY    36  28  75 W9        29.86R
REGINA         PTCLDY    36  32  87 NW5       29.90F
YORKTON        CLOUDY    34  28  80 W7        29.90R
N. BATTLEFORD  CLEAR     37  30  75 E8        29.85F
LA RONGE       MOCLDY    34  28  80 W3        29.85R
SASKATOON      PTCLDY    37  30  75 S3        29.88S
SWIFT CURRENT  CLEAR     39  32  75 E8        29.84S
$$
NOTE: THESE ARE AUTOMATED STATIONS WITH LIMITED QUALITY CONTROL
      "FAIR" INDICATES FEW OR NO CLOUDS BELOW 12,000 FEET WITH NO
      SIGNIFICANT WEATHER AND/OR OBSTRUCTIONS TO VISIBILITY.
      SKY/WX - SKY CONDITION AND SIGNIFICANT WEATHER.
      TMP - AIR TEMPERATURE.    DP   - DEWPOINT TEMPERATURE.
      RH  - RELATIVE HUMIDITY.  PRES - PRESSURE.
      HX  - HEAT INDEX.         WCI  - WIND CHILL INDEX.
$



USA.gov is the U.S. government's official web portal to all federal, state and local government web resources and services.